| time (UTC) | temp C | wind direction | speed KPH | gust KPH | rain 1hr cm | rain 24hr cm | rain mn cm | humidity % | barometer mb |
| 20260504234610 | 26 | 169 | 12.9 | 22.5 | 0.00 | 0.00 | 0.00 | 49 | 1002.9 |
| 20260504233106 | 26 | 203 | 9.7 | 27.4 | 0.00 | 0.00 | 0.00 | 49 | 1002.9 |
| 20260504231553 | 27 | 151 | 8.0 | 22.5 | 0.00 | 0.00 | 0.00 | 49 | 1002.8 |
| 20260504230055 | 27 | 208 | 11.3 | 22.5 | 0.00 | 0.00 | 0.00 | 47 | 1002.8 |
| 20260504224608 | 26 | 109 | 11.3 | 29.0 | 0.00 | 0.00 | 0.00 | 48 | 1003.0 |
| 20260504223051 | 27 | 139 | 14.5 | 37.0 | 0.00 | 0.00 | 0.00 | 45 | 1002.8 |
| 20260504221555 | 27 | 236 | 8.0 | 32.2 | 0.00 | 0.00 | 0.00 | 47 | 1002.9 |
| 20260504220058 | 26 | 184 | 19.3 | 37.0 | 0.00 | 0.00 | 0.00 | 47 | 1002.9 |
| 20260504214552 | 27 | 134 | 14.5 | 25.7 | 0.00 | 0.00 | 0.00 | 46 | 1003.0 |
| 20260504213124 | 27 | 207 | 14.5 | 32.2 | 0.00 | 0.00 | 0.00 | 46 | 1003.2 |
| 20260504211558 | 27 | 231 | 16.1 | 37.0 | 0.00 | 0.00 | 0.00 | 46 | 1003.1 |
| 20260504210053 | 27 | 200 | 14.5 | 38.6 | 0.00 | 0.00 | 0.00 | 47 | 1003.2 |
| 20260504204554 | 26 | 197 | 16.1 | 37.0 | 0.00 | 0.00 | 0.00 | 47 | 1003.4 |
| 20260504203112 | 26 | 157 | 17.7 | 32.2 | 0.00 | 0.00 | 0.00 | 48 | 1003.5 |
| 20260504201551 | 26 | 226 | 20.9 | 40.2 | 0.00 | 0.00 | 0.00 | 48 | 1003.7 |
| 20260504200053 | 26 | 194 | 19.3 | 40.2 | 0.00 | 0.00 | 0.00 | 47 | 1003.9 |
| 20260504194603 | 26 | 172 | 20.9 | 38.6 | 0.00 | 0.00 | 0.00 | 46 | 1004.1 |
| 20260504193100 | 26 | 205 | 17.7 | 40.2 | 0.00 | 0.00 | 0.00 | 48 | 1004.2 |
| 20260504191553 | 26 | 205 | 22.5 | 41.8 | 0.00 | 0.00 | 0.00 | 46 | 1004.3 |
| 20260504190114 | 26 | 214 | 24.1 | 38.6 | 0.00 | 0.00 | 0.00 | 48 | 1004.4 |
| 20260504184605 | 25 | 164 | 19.3 | 40.2 | 0.00 | 0.00 | 0.00 | 48 | 1004.4 |
| 20260504183056 | 25 | 201 | 14.5 | 30.6 | 0.00 | 0.00 | 0.00 | 48 | 1004.3 |
| 20260504181550 | 25 | 155 | 12.9 | 30.6 | 0.00 | 0.00 | 0.00 | 51 | 1004.4 |
| 20260504180057 | 24 | 200 | 14.5 | 29.0 | 0.00 | 0.00 | 0.00 | 51 | 1004.8 |
| 20260504174607 | 24 | 150 | 12.9 | 24.1 | 0.00 | 0.00 | 0.00 | 52 | 1005.0 |
| 20260504173057 | 23 | 236 | 8.0 | 33.8 | 0.00 | 0.00 | 0.00 | 51 | 1004.7 |
| 20260504171558 | 23 | 159 | 11.3 | 33.8 | 0.00 | 0.00 | 0.00 | 51 | 1004.7 |
| 20260504140107 | 20 | 233 | 12.9 | 32.2 | 0.00 | 0.00 | 0.00 | 56 | 1005.9 |
| 20260504110117 | 16 | 212 | 8.0 | 19.3 | 0.00 | 0.00 | 0.00 | 62 | 1006.5 |
| 20260504090120 | 16 | 101 | 1.6 | 3.2 | 0.00 | 0.00 | 0.00 | 63 | 1007.7 |
| 20260504081556 | 16 | 0 | 0.0 | 0.0 | 0.00 | 0.00 | 0.00 | 67 | 1008.1 |
| 20260504044600 | 18 | 125 | 3.2 | 6.4 | 0.00 | 0.00 | 0.00 | 57 | 1008.8 |
| 20260504043054 | 18 | 129 | 3.2 | 6.4 | 0.00 | 0.00 | 0.00 | 57 | 1008.9 |
| 20260504041554 | 18 | 117 | 3.2 | 4.8 | 0.00 | 0.00 | 0.00 | 56 | 1009.0 |
| 20260504040106 | 19 | 118 | 3.2 | 4.8 | 0.00 | 0.00 | 0.00 | 54 | 1009.2 |
| 20260504034603 | 20 | 136 | 4.8 | 9.7 | 0.00 | 0.00 | 0.00 | 52 | 1009.4 |
| 20260504033104 | 20 | 143 | 4.8 | 8.0 | 0.00 | 0.00 | 0.00 | 53 | 1009.5 |
| 20260504031553 | 20 | 146 | 6.4 | 12.9 | 0.00 | 0.00 | 0.00 | 52 | 1009.6 |
| 20260504030056 | 20 | 177 | 6.4 | 12.9 | 0.00 | 0.00 | 0.00 | 51 | 1009.8 |
| 20260504024605 | 20 | 160 | 6.4 | 14.5 | 0.00 | 0.00 | 0.00 | 51 | 1009.6 |
| 20260504023053 | 21 | 203 | 6.4 | 12.9 | 0.00 | 0.00 | 0.00 | 50 | 1009.6 |
| 20260504021551 | 21 | 162 | 6.4 | 11.3 | 0.00 | 0.00 | 0.00 | 48 | 1009.7 |
| 20260504020052 | 21 | 203 | 6.4 | 11.3 | 0.00 | 0.00 | 0.00 | 47 | 1009.5 |
| 20260504014554 | 21 | 218 | 6.4 | 19.3 | 0.00 | 0.00 | 0.00 | 46 | 1009.3 |
| 20260504013053 | 21 | 224 | 6.4 | 11.3 | 0.00 | 0.00 | 0.00 | 46 | 1009.4 |
| 20260504011552 | 22 | 210 | 3.2 | 11.3 | 0.00 | 0.00 | 0.00 | 45 | 1009.3 |
| 20260504010056 | 22 | 199 | 3.2 | 12.9 | 0.00 | 0.00 | 0.00 | 44 | 1009.2 |
| 20260504004550 | 23 | 228 | 8.0 | 16.1 | 0.00 | 0.00 | 0.00 | 42 | 1009.2 |
| 20260504003053 | 24 | 195 | 8.0 | 14.5 | 0.00 | 0.00 | 0.00 | 41 | 1009.2 |
| 20260504001611 | 25 | 219 | 9.7 | 17.7 | 0.00 | 0.00 | 0.00 | 40 | 1009.3 |
| 20260504000059 | 25 | 178 | 9.7 | 19.3 | 0.00 | 0.00 | 0.00 | 41 | 1009.3 |